Location: Bercimuel
(41.3983°N, 3.5711°W)
Time: 20:57:32
(UTC+00:00)

Cosmos 1725 Rocket - Pass Details

Date: 15 May 2026
Orbit: 960 x 991 km, 82.9° (Epoch: 8 June)

Event Time Altitude Azimuth Distance (km) Brightness Sun altitude
Rises 20:23:45 0° 188° (S) 3,675 6.7 -10.0°
Reaches altitude 10° 20:26:16 10° 189° (S) 2,727 6.1 -10.4°
Maximum altitude 20:32:32 83° 276° (W) 989 4.1 -11.3°
Drops below altitude 10° 20:38:48 10° 6° (N) 2,723 6.8 -12.2°
Sets 20:41:18 0° 7° (N) 3,670 7.5 -12.6°
